Weather History for Cut Bank, MT

Change the Weather History Date:

Thursday, January 24, 2013

  Actual Average Record
Temperature  
Mean Temperature 0 °C -5 °C  
Max Temperature 8 °C 1 °C 15 °C (2005)
Min Temperature -8 °C -11 °C -40 °C (1943)
Degree Days  
Heating Degree Days 33 42  
Month to date heating degree days 957 1033  
Since 1 July heating degree days 4482 4623  
Cooling Degree Days 0 0  
Month to date cooling degree days 0 0  
Year to date cooling degree days 0 0  
Moisture  
Dew Point -7 °C    
Average Humidity 58    
Maximum Humidity 78    
Minimum Humidity 37    
Precipitation  
Precipitation 0.00 mm 0.25 mm 0.89 mm (1970)
Month to date precipitation 0.41 0.16  
Year to date precipitation 0.41 0.16  
Snow  
Snow 0.00 cm - - ()
Snow Depth 0.00 cm    
Sea Level Pressure  
Sea Level Pressure 1014 hPa    
Wind  
Wind Speed 34 km/h (WSW)    
Max Wind Speed 60 km/h    
Max Gust Speed 72 km/h    
Visibility 16 kilometers    
Events      
T = Trace of Precipitation, MM = Missing Value Source: NWS Daily Summary

Daily Weather History Graph

Daily Weather History Graph

Search for Another Location

Airport:

Trip Planner

Search our weather history database for the weather conditions in past years. The results will help you decide how hot, cold, wet, or windy it might be!

Date:

Astronomy

Jan. 24, 2013 Rise Set
Actual Time 8:08 AM MST 5:15 PM MST
Civil Twilight 7:33 AM MST 5:50 PM MST
Nautical Twilight 6:55 AM MST 6:28 PM MST
Astronomical Twilight 6:18 AM MST 7:05 PM MST
Moon 3:18 PM MST (1/24) 6:11 AM MST (1/24)
Length of Visible Light 10h 16m
Length of Day
9h 07m
Waxing Gibbous, 95% of the Moon is Illuminated
Jan 24
Waxing Gibbous
Jan 26
Full
Feb 3
Last Quarter
Feb 10
New
Feb 17
First Quarter

Hourly Weather History & Observations

Time (MST) Temp. Windchill Dew Point Humidity Pressure Visibility Wind Dir Wind Speed Gust Speed Precip Events Conditions
12:56 AM -7.2 °C -14.0 °C -11.7 °C 71% 1011.7 hPa 16.1 km SSE 18.5 km/h / 5.1 m/s - N/A   Clear
1:56 AM -7.2 °C -11.6 °C -11.1 °C 74% 1011.6 hPa 16.1 km SW 9.3 km/h / 2.6 m/s - N/A   Clear
2:56 AM -0.6 °C -5.4 °C -4.4 °C 76% 1010.4 hPa 16.1 km SE 16.7 km/h / 4.6 m/s - N/A   Clear
3:56 AM 5.6 °C 0.7 °C -2.2 °C 58% 1009.6 hPa 16.1 km WSW 31.5 km/h / 8.7 m/s 44.4 km/h / 12.3 m/s N/A   Clear
4:56 AM 4.4 °C -1.8 °C -2.2 °C 63% 1009.5 hPa 16.1 km West 44.4 km/h / 12.3 m/s 64.8 km/h / 18.0 m/s N/A   Clear
5:56 AM 3.3 °C -3.1 °C -2.8 °C 65% 1009.8 hPa 16.1 km West 42.6 km/h / 11.8 m/s 59.3 km/h / 16.5 m/s N/A   Clear
6:56 AM 2.8 °C -2.8 °C -3.9 °C 62% 1011.0 hPa 16.1 km West 29.6 km/h / 8.2 m/s 48.2 km/h / 13.4 m/s N/A   Clear
7:56 AM 3.3 °C -2.6 °C -5.0 °C 55% 1012.6 hPa 16.1 km West 35.2 km/h / 9.8 m/s 48.2 km/h / 13.4 m/s N/A   Clear
8:56 AM 2.8 °C -2.9 °C -5.0 °C 57% 1014.6 hPa 16.1 km WNW 31.5 km/h / 8.7 m/s - N/A   Clear
9:56 AM 5.0 °C 0.1 °C -5.6 °C 47% 1015.5 hPa 16.1 km West 29.6 km/h / 8.2 m/s - N/A   Clear
10:56 AM 5.6 °C -0.3 °C -7.2 °C 40% 1016.3 hPa 16.1 km West 46.3 km/h / 12.9 m/s 68.5 km/h / 19.0 m/s N/A   Clear
11:56 AM 6.7 °C 1.0 °C -7.2 °C 37% 1016.6 hPa 16.1 km West 50.0 km/h / 13.9 m/s 70.4 km/h / 19.5 m/s N/A   Clear
12:56 PM 6.7 °C 1.0 °C -7.2 °C 37% 1016.6 hPa 16.1 km West 50.0 km/h / 13.9 m/s 64.8 km/h / 18.0 m/s N/A   Clear
1:56 PM 7.2 °C 2.3 °C -7.2 °C 36% 1017.1 hPa 16.1 km West 38.9 km/h / 10.8 m/s - N/A   Clear
2:56 PM 6.1 °C 1.0 °C -7.2 °C 38% 1016.1 hPa 16.1 km West 37.0 km/h / 10.3 m/s 48.2 km/h / 13.4 m/s N/A   Clear
3:56 PM 5.6 °C -0.1 °C -6.1 °C 43% 1015.6 hPa 16.1 km West 42.6 km/h / 11.8 m/s 51.9 km/h / 14.4 m/s N/A   Clear
4:56 PM 3.3 °C -3.4 °C -6.1 °C 51% 1016.7 hPa 16.1 km WSW 46.3 km/h / 12.9 m/s 55.6 km/h / 15.4 m/s N/A   Clear
5:56 PM 1.7 °C -3.8 °C -7.2 °C 52% 1017.7 hPa 16.1 km WSW 25.9 km/h / 7.2 m/s - N/A   Clear
6:56 PM 2.2 °C -3.9 °C -7.2 °C 50% 1017.4 hPa 16.1 km West 33.3 km/h / 9.3 m/s 44.4 km/h / 12.3 m/s N/A   Clear
7:56 PM 1.7 °C -4.0 °C -8.3 °C 48% 1017.7 hPa 16.1 km WSW 27.8 km/h / 7.7 m/s - N/A   Clear
8:56 PM 2.2 °C -3.7 °C -8.9 °C 44% 1017.2 hPa 16.1 km WSW 31.5 km/h / 8.7 m/s 42.6 km/h / 11.8 m/s N/A   Clear
9:56 PM 2.2 °C -4.0 °C -10.0 °C 41% 1016.3 hPa 16.1 km WSW 35.2 km/h / 9.8 m/s - N/A   Clear
10:56 PM 2.2 °C -3.4 °C -10.0 °C 41% 1016.6 hPa 16.1 km WSW 27.8 km/h / 7.7 m/s - N/A   Clear
11:56 PM 2.8 °C -3.8 °C -11.1 °C 36% 1016.0 hPa 16.1 km WSW 42.6 km/h / 11.8 m/s 50.0 km/h / 13.9 m/s N/A   Clear